| time (UTC) | temp F | wind direction | speed knots | gust knots | rain 1hr in | rain 24hr in | rain mn in | humidity % | barometer mb |
| 20260502123016 | 63 | 113 | 1.7 | 5.2 | 0.00 | 0.00 | 0.00 | 70 | 1014.9 |
| 20260502121520 | 64 | 119 | 2.6 | 7.0 | 0.00 | 0.00 | 0.00 | 69 | 1015.0 |
| 20260502114513 | 63 | 118 | 3.5 | 6.1 | 0.00 | 0.00 | 0.00 | 71 | 1015.5 |
| 20260502113014 | 63 | 77 | 3.5 | 6.1 | 0.00 | 0.00 | 0.00 | 70 | 1015.7 |
| 20260502111513 | 63 | 92 | 2.6 | 6.1 | 0.00 | 0.00 | 0.00 | 69 | 1015.8 |
| 20260502110013 | 64 | 109 | 2.6 | 6.1 | 0.00 | 0.00 | 0.00 | 69 | 1015.9 |
| 20260502104515 | 63 | 137 | 1.7 | 6.1 | 0.00 | 0.00 | 0.00 | 70 | 1016.0 |
| 20260502103030 | 62 | 127 | 2.6 | 5.2 | 0.00 | 0.00 | 0.00 | 70 | 1016.3 |
| 20260502101514 | 62 | 102 | 2.6 | 5.2 | 0.00 | 0.00 | 0.00 | 69 | 1016.6 |
| 20260502091515 | 60 | 123 | 2.6 | 7.0 | 0.00 | 0.00 | 0.00 | 74 | 1017.1 |
| 20260502071513 | 51 | 104 | 0.0 | 0.0 | 0.00 | 0.00 | 0.00 | 95 | 1018.0 |
| 20260502070022 | 49 | 207 | 0.0 | 0.9 | 0.00 | 0.00 | 0.00 | 95 | 1018.0 |
| 20260502064517 | 46 | 207 | 0.0 | 0.9 | 0.00 | 0.00 | 0.00 | 95 | 1018.1 |
| 20260502063028 | 45 | 207 | 0.0 | 0.0 | 0.00 | 0.00 | 0.00 | 94 | 1018.2 |
| 20260502061534 | 45 | 207 | 0.0 | 0.0 | 0.00 | 0.00 | 0.00 | 93 | 1018.2 |
| 20260502060028 | 46 | 207 | 0.0 | 0.9 | 0.00 | 0.00 | 0.00 | 93 | 1018.2 |
| 20260502054514 | 47 | 207 | 1.7 | 3.5 | 0.00 | 0.00 | 0.00 | 94 | 1018.3 |
| 20260502053021 | 46 | 222 | 3.5 | 5.2 | 0.00 | 0.00 | 0.00 | 94 | 1018.4 |
| 20260502051516 | 46 | 213 | 2.6 | 3.5 | 0.00 | 0.00 | 0.00 | 94 | 1018.3 |
| 20260502050026 | 46 | 209 | 3.5 | 5.2 | 0.00 | 0.00 | 0.00 | 94 | 1018.3 |
| 20260502044513 | 45 | 208 | 1.7 | 3.5 | 0.00 | 0.00 | 0.00 | 94 | 1018.2 |
| 20260502043027 | 45 | 208 | 0.0 | 1.7 | 0.00 | 0.00 | 0.00 | 93 | 1018.2 |
| 20260502041513 | 45 | 208 | 0.0 | 0.0 | 0.00 | 0.00 | 0.00 | 93 | 1018.1 |
| 20260502034515 | 46 | 208 | 0.0 | 0.0 | 0.00 | 0.00 | 0.00 | 94 | 1018.4 |
| 20260502033027 | 45 | 208 | 0.0 | 0.0 | 0.00 | 0.00 | 0.00 | 93 | 1018.7 |
| 20260502030024 | 47 | 208 | 0.0 | 0.0 | 0.00 | 0.00 | 0.00 | 93 | 1018.8 |
| 20260502024514 | 47 | 208 | 1.7 | 2.6 | 0.00 | 0.00 | 0.00 | 93 | 1018.9 |
| 20260502023022 | 48 | 208 | 2.6 | 3.5 | 0.00 | 0.00 | 0.00 | 93 | 1019.0 |
| 20260502021515 | 48 | 209 | 2.6 | 3.5 | 0.00 | 0.00 | 0.00 | 93 | 1019.2 |
| 20260502020026 | 48 | 204 | 2.6 | 3.5 | 0.00 | 0.00 | 0.00 | 93 | 1019.3 |
| 20260502014515 | 48 | 204 | 2.6 | 3.5 | 0.00 | 0.00 | 0.00 | 92 | 1019.4 |
| 20260502013025 | 48 | 204 | 2.6 | 3.5 | 0.00 | 0.00 | 0.00 | 93 | 1019.5 |
| 20260502011514 | 48 | 204 | 2.6 | 4.3 | 0.00 | 0.00 | 0.00 | 93 | 1019.6 |
| 20260502004513 | 47 | 209 | 2.6 | 3.5 | 0.00 | 0.00 | 0.00 | 92 | 1019.8 |
| 20260502003018 | 47 | 209 | 0.0 | 2.6 | 0.00 | 0.00 | 0.00 | 92 | 1019.8 |
| 20260502001514 | 47 | 209 | 0.0 | 0.0 | 0.00 | 0.00 | 0.00 | 91 | 1020.0 |
| 20260502000024 | 47 | 209 | 0.0 | 0.0 | 0.00 | 0.00 | 0.00 | 91 | 1019.9 |
| 20260501234515 | 48 | 209 | 0.0 | 0.0 | 0.00 | 0.00 | 0.00 | 90 | 1020.1 |
| 20260501233021 | 49 | 209 | 0.0 | 0.0 | 0.00 | 0.00 | 0.00 | 91 | 1020.0 |
| 20260501231519 | 49 | 209 | 0.0 | 0.0 | 0.00 | 0.00 | 0.00 | 90 | 1020.2 |
| 20260501230041 | 49 | 209 | 0.9 | 1.7 | 0.00 | 0.00 | 0.00 | 90 | 1020.3 |
| 20260501224512 | 49 | 209 | 2.6 | 3.5 | 0.00 | 0.00 | 0.00 | 90 | 1020.4 |
| 20260501223031 | 49 | 209 | 2.6 | 3.5 | 0.00 | 0.00 | 0.00 | 90 | 1020.4 |
| 20260501221518 | 50 | 208 | 3.5 | 4.3 | 0.00 | 0.00 | 0.00 | 89 | 1020.5 |
| 20260501214513 | 51 | 236 | 1.7 | 2.6 | 0.00 | 0.00 | 0.00 | 88 | 1020.4 |
| 20260501213017 | 52 | 236 | 1.7 | 3.5 | 0.00 | 0.00 | 0.00 | 87 | 1020.5 |
| 20260501210014 | 54 | 236 | 0.0 | 0.0 | 0.00 | 0.00 | 0.00 | 87 | 1020.3 |
| 20260501204514 | 54 | 236 | 0.0 | 0.0 | 0.00 | 0.00 | 0.00 | 87 | 1020.3 |
| 20260501203025 | 54 | 236 | 0.9 | 1.7 | 0.00 | 0.00 | 0.00 | 86 | 1020.3 |
| 20260501201512 | 54 | 236 | 1.7 | 3.5 | 0.00 | 0.00 | 0.00 | 85 | 1020.3 |
| 20260501200025 | 55 | 201 | 1.7 | 3.5 | 0.00 | 0.00 | 0.00 | 84 | 1020.3 |
| 20260501194511 | 55 | 244 | 0.9 | 1.7 | 0.00 | 0.00 | 0.00 | 84 | 1020.3 |
| 20260501193021 | 55 | 244 | 1.7 | 4.3 | 0.00 | 0.00 | 0.00 | 83 | 1020.2 |
| 20260501184516 | 57 | 254 | 4.3 | 6.1 | 0.00 | 0.00 | 0.00 | 82 | 1019.9 |
| 20260501183012 | 57 | 218 | 4.3 | 7.0 | 0.00 | 0.00 | 0.00 | 81 | 1019.7 |
| 20260501180021 | 59 | 234 | 5.2 | 7.0 | 0.00 | 0.00 | 0.00 | 80 | 1019.7 |
| 20260501171513 | 62 | 335 | 3.5 | 7.0 | 0.00 | 0.00 | 0.00 | 74 | 1019.6 |
| 20260501170024 | 63 | 312 | 4.3 | 7.8 | 0.00 | 0.00 | 0.00 | 73 | 1019.6 |
| 20260501164514 | 63 | 323 | 1.7 | 4.3 | 0.00 | 0.00 | 0.00 | 73 | 1019.7 |
| 20260501163022 | 63 | 321 | 3.5 | 7.0 | 0.00 | 0.00 | 0.00 | 72 | 1019.7 |